When you browse on this site, cookies collect data to enhance your experience and personalize the content and advertising you see.
Visit our Privacy Policy to learn more. By continuing to use the site, you agree to this use of cookies and data.
  • en Suisse
  • Liste des pays
  • À 7 jours
  • Température de l'eau
  • Carte satellitaire
  • Carte météo
  • Widgets météo
  • user-avatar
    Se connecter

    Météo par heure à Lashkar Gah

    Ce jour, 25 Avril, Jeudi

    Heure Température Précipitation Vent Pression Humidité
    00:00 +24°C° 0 mm 3 m/s 693 mmHg 24%
    01:00 +22°C° 0 mm 3 m/s 693 mmHg 25%
    02:00 +22°C° 0 mm 3 m/s 693 mmHg 25%
    03:00 +21°C° 0 mm 3 m/s 693 mmHg 25%
    04:00 +20°C° 0 mm 4 m/s 694 mmHg 27%
    05:00 +21°C° 0 mm 4 m/s 694 mmHg 25%
    06:00 +21°C° 0 mm 3 m/s 695 mmHg 23%
    07:00 +22°C° 0 mm 3 m/s 695 mmHg 22%
    08:00 +23°C° 0 mm 4 m/s 696 mmHg 19%
    09:00 +26°C° 0 mm 4 m/s 696 mmHg 16%
    10:00 +27°C° 0 mm 4 m/s 697 mmHg 14%
    11:00 +28°C° 0 mm 5 m/s 696 mmHg 14%
    12:00 +29°C° 0 mm 5 m/s 696 mmHg 14%
    13:00 +29°C° 0 mm 6 m/s 696 mmHg 14%
    14:00 +29°C° 0 mm 6 m/s 696 mmHg 14%
    15:00 +29°C° 0 mm 6 m/s 696 mmHg 14%
    16:00 +29°C° 0 mm 6 m/s 695 mmHg 14%
    17:00 +28°C° 0 mm 6 m/s 695 mmHg 15%
    18:00 +27°C° 0 mm 5 m/s 695 mmHg 16%
    19:00 +26°C° 0 mm 5 m/s 695 mmHg 17%
    20:00 +25°C° 0 mm 4 m/s 695 mmHg 18%
    21:00 +24°C° 0 mm 3 m/s 695 mmHg 19%
    22:00 +24°C° 0 mm 3 m/s 695 mmHg 21%
    23:00 +22°C° 0 mm 3 m/s 695 mmHg 22%

    Demain, 26 Avril, Vendredi

    Heure Température Précipitation Vent Pression Humidité
    00:00 +21°C° 0 mm 2 m/s 694 mmHg 23%
    01:00 +21°C° 0 mm 2 m/s 694 mmHg 24%
    02:00 +20°C° 0 mm 2 m/s 694 mmHg 25%
    03:00 +20°C° 0 mm 2 m/s 694 mmHg 25%
    04:00 +19°C° 0 mm 2 m/s 694 mmHg 26%
    05:00 +20°C° 0 mm 2 m/s 694 mmHg 25%
    06:00 +21°C° 0 mm 2 m/s 695 mmHg 24%
    07:00 +21°C° 0 mm 2 m/s 695 mmHg 23%
    08:00 +24°C° 0 mm 2 m/s 695 mmHg 20%
    09:00 +25°C° 0 mm 2 m/s 696 mmHg 18%
    10:00 +26°C° 0 mm 2 m/s 696 mmHg 15%
    11:00 +27°C° 0 mm 2 m/s 696 mmHg 14%
    12:00 +28°C° 0 mm 3 m/s 696 mmHg 13%
    13:00 +29°C° 0 mm 3 m/s 695 mmHg 12%
    14:00 +29°C° 0 mm 4 m/s 695 mmHg 11%
    15:00 +30°C° 0 mm 4 m/s 695 mmHg 11%
    16:00 +30°C° 0 mm 4 m/s 694 mmHg 11%
    17:00 +29°C° 0 mm 4 m/s 694 mmHg 13%
    18:00 +28°C° 0 mm 4 m/s 694 mmHg 14%
    19:00 +27°C° 0 mm 3 m/s 694 mmHg 15%
    20:00 +27°C° 0 mm 3 m/s 695 mmHg 17%
    21:00 +26°C° 0 mm 3 m/s 695 mmHg 18%
    22:00 +25°C° 0 mm 3 m/s 695 mmHg 19%
    23:00 +25°C° 0 mm 2 m/s 695 mmHg 20%

    Après-demain, 27 Avril, Samedi

    Heure Température Précipitation Vent Pression Humidité
    00:00 +24°C° 0 mm 2 m/s 695 mmHg 21%
    01:00 +23°C° 0 mm 2 m/s 694 mmHg 22%
    02:00 +23°C° 0 mm 2 m/s 694 mmHg 23%
    03:00 +21°C° 0 mm 2 m/s 694 mmHg 24%
    04:00 +21°C° 0 mm 2 m/s 694 mmHg 24%
    05:00 +23°C° 0 mm 2 m/s 695 mmHg 23%
    06:00 +24°C° 0 mm 2 m/s 695 mmHg 21%
    07:00 +24°C° 0 mm 2 m/s 696 mmHg 20%
    08:00 +26°C° 0 mm 2 m/s 696 mmHg 18%
    09:00 +27°C° 0 mm 2 m/s 696 mmHg 15%
    10:00 +28°C° 0 mm 2 m/s 697 mmHg 13%
    11:00 +29°C° 0 mm 3 m/s 696 mmHg 12%
    12:00 +30°C° 0 mm 3 m/s 696 mmHg 12%
    13:00 +32°C° 0 mm 4 m/s 696 mmHg 11%
    14:00 +32°C° 0 mm 4 m/s 695 mmHg 11%
    15:00 +32°C° 0 mm 4 m/s 695 mmHg 11%
    16:00 +32°C° 0 mm 5 m/s 695 mmHg 11%
    17:00 +30°C° 0 mm 4 m/s 695 mmHg 12%
    18:00 +29°C° 0 mm 4 m/s 695 mmHg 13%
    19:00 +28°C° 0 mm 4 m/s 694 mmHg 14%
    20:00 +28°C° 0 mm 3 m/s 695 mmHg 15%
    21:00 +27°C° 0 mm 3 m/s 695 mmHg 17%
    22:00 +26°C° 0 mm 3 m/s 695 mmHg 18%
    23:00 +26°C° 0 mm 3 m/s 695 mmHg 20%

    28 Avril, Dimanche

    Heure Température Précipitation Vent Pression Humidité
    00:00 +25°C° 0 mm 3 m/s 694 mmHg 21%
    01:00 +24°C° 0 mm 3 m/s 694 mmHg 23%
    02:00 +24°C° 0 mm 3 m/s 694 mmHg 23%
    03:00 +22°C° 0 mm 3 m/s 694 mmHg 23%
    04:00 +22°C° 0 mm 3 m/s 693 mmHg 24%
    05:00 +22°C° 0 mm 3 m/s 694 mmHg 23%
    06:00 +24°C° 0 mm 3 m/s 695 mmHg 22%
    07:00 +25°C° 0 mm 3 m/s 695 mmHg 21%
    08:00 +26°C° 0 mm 3 m/s 695 mmHg 18%
    09:00 +28°C° 0 mm 3 m/s 696 mmHg 15%
    10:00 +30°C° 0 mm 4 m/s 696 mmHg 13%
    11:00 +32°C° 0 mm 4 m/s 696 mmHg 11%
    12:00 +33°C° 0 mm 5 m/s 695 mmHg 10%
    13:00 +33°C° 0 mm 6 m/s 695 mmHg 9%
    14:00 +34°C° 0 mm 6 m/s 694 mmHg 9%
    15:00 +34°C° 0 mm 6 m/s 694 mmHg 9%
    16:00 +34°C° 0 mm 6 m/s 693 mmHg 9%
    17:00 +32°C° 0 mm 5 m/s 693 mmHg 10%
    18:00 +30°C° 0 mm 4 m/s 693 mmHg 11%
    19:00 +29°C° 0 mm 3 m/s 693 mmHg 12%
    20:00 +29°C° 0 mm 3 m/s 693 mmHg 13%
    21:00 +28°C° 0 mm 3 m/s 693 mmHg 14%
    22:00 +27°C° 0 mm 3 m/s 693 mmHg 15%
    23:00 +26°C° 0 mm 2 m/s 693 mmHg 16%

    29 Avril, Lundi

    Heure Température Précipitation Vent Pression Humidité
    00:00 +25°C° 0 mm 2 m/s 692 mmHg 16%
    01:00 +25°C° 0 mm 2 m/s 692 mmHg 17%
    02:00 +24°C° 0 mm 1 m/s 691 mmHg 18%
    03:00 +23°C° 0 mm 1 m/s 691 mmHg 19%
    04:00 +21°C° 0 mm 0 m/s 691 mmHg 20%
    05:00 +24°C° 0 mm 1 m/s 691 mmHg 18%
    06:00 +25°C° 0 mm 2 m/s 692 mmHg 16%
    07:00 +27°C° 0 mm 2 m/s 692 mmHg 14%
    08:00 +28°C° 0 mm 2 m/s 692 mmHg 13%
    09:00 +29°C° 0 mm 1 m/s 692 mmHg 12%
    10:00 +28°C° 0 mm 0 m/s 693 mmHg 11%
    11:00 +31°C° 0 mm 1 m/s 692 mmHg 10%
    12:00 +32°C° 0 mm 1 m/s 692 mmHg 10%
    13:00 +32°C° 0 mm 1 m/s 691 mmHg 10%
    14:00 +33°C° 0 mm 3 m/s 691 mmHg 10%
    15:00 +34°C° 0 mm 4 m/s 690 mmHg 11%
    16:00 +34°C° 0 mm 5 m/s 690 mmHg 11%
    17:00 +33°C° 0 mm 5 m/s 690 mmHg 13%
    18:00 +30°C° 0 mm 4 m/s 690 mmHg 16%
    19:00 +29°C° 0 mm 3 m/s 690 mmHg 18%
    20:00 +28°C° 0 mm 3 m/s 690 mmHg 19%
    21:00 +27°C° 0 mm 2 m/s 690 mmHg 20%
    22:00 +27°C° 0 mm 2 m/s 690 mmHg 22%
    23:00 +26°C° 0 mm 2 m/s 690 mmHg 23%

    30 Avril, Mardi

    Heure Température Précipitation Vent Pression Humidité
    00:00 +25°C° 0 mm 3 m/s 690 mmHg 24%
    01:00 +25°C° 0 mm 3 m/s 690 mmHg 25%
    02:00 +24°C° 0 mm 3 m/s 690 mmHg 29%
    03:00 +22°C° 0 mm 3 m/s 690 mmHg 32%
    04:00 +22°C° 0 mm 3 m/s 690 mmHg 35%
    05:00 +22°C° 0 mm 4 m/s 690 mmHg 34%
    06:00 +22°C° 0 mm 4 m/s 691 mmHg 34%
    07:00 +23°C° 0 mm 4 m/s 692 mmHg 34%
    08:00 +25°C° 0 mm 4 m/s 692 mmHg 30%
    09:00 +27°C° 0 mm 4 m/s 692 mmHg 26%
    10:00 +28°C° 0 mm 4 m/s 693 mmHg 23%
    11:00 +29°C° 0 mm 4 m/s 692 mmHg 21%
    12:00 +30°C° 0 mm 4 m/s 692 mmHg 19%
    13:00 +32°C° 0 mm 4 m/s 691 mmHg 17%
    14:00 +33°C° 0 mm 5 m/s 691 mmHg 16%
    15:00 +33°C° 0 mm 5 m/s 691 mmHg 15%
    16:00 +33°C° 0 mm 6 m/s 690 mmHg 14%
    17:00 +32°C° 0 mm 5 m/s 690 mmHg 15%
    18:00 +30°C° 0 mm 5 m/s 690 mmHg 16%
    19:00 +30°C° 0 mm 4 m/s 690 mmHg 17%
    20:00 +29°C° 0 mm 4 m/s 690 mmHg 17%
    21:00 +28°C° 0 mm 4 m/s 690 mmHg 18%
    22:00 +27°C° 0 mm 4 m/s 691 mmHg 18%
    23:00 +26°C° 0 mm 4 m/s 690 mmHg 19%
    Voir plus